| time (UTC) | temp C | wind direction | speed KPH | gust KPH | rain 1hr cm | rain 24hr cm | rain mn cm | humidity % | barometer mb |
| 20260505092843 | 11 | 165 | 0.0 | 0.0 | 0.00 | 0.58 | 0.20 | 92 | 1015.2 |
| 20260505090700 | 11 | 174 | 0.0 | 0.0 | 0.00 | 0.58 | 0.20 | 92 | 1015.5 |
| 20260505085703 | 11 | 174 | 0.0 | 0.0 | 0.00 | 0.58 | 0.20 | 91 | 1015.7 |
| 20260505084646 | 11 | 174 | 0.0 | 0.0 | 0.00 | 0.58 | 0.20 | 92 | 1015.8 |
| 20260505083623 | 11 | 174 | 0.0 | 0.0 | 0.03 | 0.58 | 0.20 | 91 | 1015.6 |
| 20260505082622 | 11 | 174 | 0.0 | 0.0 | 0.03 | 0.53 | 0.20 | 91 | 1015.7 |
| 20260505081645 | 11 | 174 | 0.0 | 0.0 | 0.10 | 0.53 | 0.15 | 91 | 1015.7 |
| 20260505080646 | 11 | 174 | 0.0 | 0.0 | 0.10 | 0.53 | 0.15 | 91 | 1015.8 |
| 20260505075655 | 11 | 174 | 0.0 | 0.0 | 0.20 | 0.51 | 0.15 | 91 | 1015.7 |
| 20260505074704 | 11 | 174 | 0.0 | 1.6 | 0.41 | 0.48 | 0.13 | 91 | 1015.6 |
| 20260505073717 | 11 | 142 | 0.0 | 0.0 | 0.30 | 0.43 | 0.08 | 91 | 1015.7 |
| 20260505072714 | 11 | 140 | 0.0 | 1.6 | 0.03 | 0.38 | 0.03 | 91 | 1015.9 |
| 20260505071653 | 11 | 170 | 0.0 | 0.0 | 0.00 | 0.36 | 0.00 | 91 | 1016.0 |
| 20260505070707 | 11 | 169 | 0.0 | 0.0 | 0.00 | 0.36 | 0.00 | 90 | 1016.1 |
| 20260505065715 | 11 | 185 | 0.0 | 3.2 | 0.00 | 0.36 | 0.38 | 90 | 1015.9 |
| 20260505064651 | 11 | 173 | 0.0 | 0.0 | 0.00 | 0.36 | 0.38 | 90 | 1015.9 |
| 20260505063715 | 11 | 173 | 0.0 | 0.0 | 0.10 | 0.36 | 0.38 | 90 | 1015.7 |
| 20260505062655 | 11 | 173 | 0.0 | 0.0 | 0.10 | 0.36 | 0.38 | 90 | 1015.5 |
| 20260505061714 | 11 | 173 | 0.0 | 0.0 | 0.03 | 0.33 | 0.33 | 89 | 1015.7 |
| 20260505060649 | 11 | 173 | 0.0 | 0.0 | 0.03 | 0.33 | 0.33 | 89 | 1015.9 |
| 20260505055646 | 11 | 173 | 0.0 | 0.0 | 0.10 | 0.33 | 0.33 | 89 | 1015.9 |
| 20260505054706 | 11 | 174 | 0.0 | 0.0 | 0.10 | 0.33 | 0.33 | 89 | 1015.9 |
| 20260505053651 | 11 | 174 | 0.0 | 0.0 | 0.10 | 0.30 | 0.30 | 89 | 1015.9 |
| 20260505052700 | 11 | 174 | 0.0 | 0.0 | 0.10 | 0.25 | 0.25 | 89 | 1015.9 |
| 20260505051654 | 11 | 174 | 0.0 | 0.0 | 0.10 | 0.25 | 0.25 | 88 | 1015.9 |
| 20260505050659 | 11 | 191 | 0.0 | 0.0 | 0.15 | 0.23 | 0.25 | 87 | 1015.9 |
| 20260505041629 | 11 | 149 | 0.0 | 8.0 | 0.03 | 0.08 | 0.08 | 83 | 1016.5 |
| 20260505040640 | 12 | 185 | 0.0 | 4.8 | 0.00 | 0.05 | 0.05 | 85 | 1016.4 |
| 20260505035649 | 12 | 166 | 0.0 | 0.0 | 0.00 | 0.05 | 0.05 | 85 | 1016.0 |
| 20260505033453 | 12 | 166 | 0.0 | 0.0 | 0.03 | 0.03 | 0.03 | 82 | 1015.4 |
| 20260505032451 | 12 | 166 | 0.0 | 0.0 | 0.03 | 0.03 | 0.03 | 80 | 1015.2 |
| 20260505031506 | 12 | 166 | 0.0 | 0.0 | 0.00 | 0.00 | 0.00 | 78 | 1015.0 |
| 20260505030447 | 13 | 166 | 0.0 | 0.0 | 0.00 | 0.00 | 0.00 | 77 | 1015.0 |
| 20260505025430 | 13 | 169 | 0.0 | 1.6 | 0.00 | 0.00 | 0.00 | 76 | 1015.0 |
| 20260505024413 | 13 | 161 | 0.0 | 0.0 | 0.00 | 0.00 | 0.00 | 77 | 1015.2 |
| 20260505023410 | 13 | 169 | 0.0 | 0.0 | 0.00 | 0.00 | 0.00 | 77 | 1015.3 |
| 20260505022345 | 13 | 169 | 0.0 | 0.0 | 0.00 | 0.00 | 0.00 | 76 | 1015.1 |
| 20260505020155 | 13 | 170 | 0.0 | 0.0 | 0.00 | 0.00 | 0.00 | 74 | 1015.1 |
| 20260505015212 | 13 | 156 | 0.0 | 0.0 | 0.00 | 0.00 | 0.00 | 73 | 1015.1 |
| 20260505014216 | 14 | 174 | 0.0 | 4.8 | 0.00 | 0.00 | 0.00 | 74 | 1015.2 |
| 20260505013228 | 14 | 172 | 0.0 | 1.6 | 0.00 | 0.00 | 0.00 | 73 | 1015.3 |
| 20260505011129 | 14 | 146 | 0.0 | 1.6 | 0.00 | 0.00 | 0.00 | 76 | 1015.4 |
| 20260505005025 | 15 | 150 | 0.0 | 0.0 | 0.00 | 0.00 | 0.00 | 77 | 1015.6 |
| 20260505004001 | 15 | 148 | 0.0 | 0.0 | 0.00 | 0.00 | 0.00 | 78 | 1015.7 |
| 20260505002954 | 15 | 146 | 0.0 | 4.8 | 0.00 | 0.00 | 0.00 | 78 | 1015.7 |
| 20260505001945 | 15 | 152 | 0.0 | 1.6 | 0.00 | 0.00 | 0.00 | 78 | 1015.7 |
| 20260505001004 | 15 | 162 | 0.0 | 4.8 | 0.00 | 0.00 | 0.00 | 77 | 1015.7 |
| 20260505000008 | 15 | 146 | 0.0 | 4.8 | 0.00 | 0.00 | 0.00 | 77 | 1015.5 |
| 20260504234940 | 15 | 152 | 1.6 | 9.7 | 0.00 | 0.00 | 0.00 | 77 | 1015.6 |
| 20260504233919 | 16 | 141 | 1.6 | 9.7 | 0.00 | 0.00 | 0.00 | 75 | 1015.5 |
| 20260504232945 | 16 | 138 | 0.0 | 4.8 | 0.00 | 0.00 | 0.00 | 74 | 1015.4 |
| 20260504231911 | 16 | 139 | 0.0 | 4.8 | 0.00 | 0.00 | 0.00 | 72 | 1015.3 |
| 20260504230859 | 16 | 142 | 0.0 | 6.4 | 0.00 | 0.00 | 0.00 | 72 | 1015.3 |
| 20260504225850 | 16 | 143 | 1.6 | 9.7 | 0.00 | 0.00 | 0.00 | 71 | 1015.4 |
| 20260504224901 | 16 | 140 | 1.6 | 9.7 | 0.00 | 0.00 | 0.00 | 70 | 1015.5 |
| 20260504223923 | 17 | 162 | 1.6 | 9.7 | 0.00 | 0.00 | 0.00 | 69 | 1015.5 |
| 20260504222945 | 17 | 145 | 0.0 | 4.8 | 0.00 | 0.00 | 0.00 | 69 | 1015.6 |
| 20260504221938 | 17 | 150 | 1.6 | 9.7 | 0.00 | 0.00 | 0.00 | 67 | 1015.6 |
| 20260504220930 | 18 | 144 | 1.6 | 12.9 | 0.00 | 0.00 | 0.00 | 67 | 1015.7 |
| 20260504215930 | 18 | 143 | 3.2 | 12.9 | 0.00 | 0.00 | 0.00 | 66 | 1015.6 |
| 20260504214950 | 18 | 168 | 1.6 | 9.7 | 0.00 | 0.00 | 0.00 | 66 | 1015.7 |
| 20260504213940 | 18 | 140 | 1.6 | 9.7 | 0.00 | 0.00 | 0.00 | 68 | 1015.6 |
| 20260504212912 | 18 | 156 | 1.6 | 11.3 | 0.00 | 0.00 | 0.00 | 69 | 1015.8 |
| 20260504211936 | 17 | 164 | 1.6 | 11.3 | 0.00 | 0.00 | 0.00 | 69 | 1015.7 |
| 20260504210923 | 18 | 96 | 1.6 | 11.3 | 0.00 | 0.00 | 0.00 | 69 | 1015.7 |
| 20260504205924 | 18 | 145 | 1.6 | 6.4 | 0.00 | 0.00 | 0.00 | 68 | 1015.8 |
| 20260504204922 | 18 | 23 | 1.6 | 14.5 | 0.00 | 0.00 | 0.00 | 69 | 1015.9 |
| 20260504203937 | 17 | 165 | 3.2 | 14.5 | 0.00 | 0.00 | 0.00 | 70 | 1015.9 |
| 20260504202929 | 17 | 84 | 1.6 | 9.7 | 0.00 | 0.00 | 0.00 | 71 | 1015.8 |
| 20260504201949 | 17 | 131 | 0.0 | 6.4 | 0.00 | 0.00 | 0.00 | 69 | 1015.7 |
| 20260504201004 | 17 | 144 | 1.6 | 9.7 | 0.00 | 0.00 | 0.00 | 69 | 1015.8 |
| 20260504200013 | 18 | 87 | 1.6 | 9.7 | 0.00 | 0.00 | 0.00 | 65 | 1016.1 |
| 20260504195004 | 18 | 120 | 1.6 | 8.0 | 0.00 | 0.00 | 0.00 | 65 | 1016.1 |
| 20260504194019 | 18 | 143 | 1.6 | 11.3 | 0.00 | 0.00 | 0.00 | 66 | 1015.9 |
| 20260504193008 | 18 | 120 | 3.2 | 14.5 | 0.00 | 0.00 | 0.00 | 69 | 1015.8 |
| 20260504192029 | 17 | 137 | 4.8 | 14.5 | 0.00 | 0.00 | 0.00 | 68 | 1015.9 |
| 20260504185848 | 18 | 335 | 1.6 | 6.4 | 0.00 | 0.00 | 0.00 | 62 | 1016.0 |
| 20260504184909 | 18 | 160 | 1.6 | 6.4 | 0.00 | 0.00 | 0.00 | 63 | 1015.9 |
| 20260504183926 | 19 | 141 | 0.0 | 6.4 | 0.00 | 0.00 | 0.00 | 63 | 1016.0 |
| 20260504182918 | 18 | 49 | 1.6 | 6.4 | 0.00 | 0.00 | 0.00 | 65 | 1015.9 |
| 20260504181917 | 18 | 134 | 1.6 | 8.0 | 0.00 | 0.00 | 0.00 | 65 | 1015.8 |
| 20260504175743 | 18 | 150 | 3.2 | 9.7 | 0.00 | 0.00 | 0.00 | 63 | 1015.8 |
| 20260504174710 | 19 | 152 | 1.6 | 17.7 | 0.00 | 0.00 | 0.00 | 64 | 1015.8 |
| 20260504172624 | 18 | 154 | 1.6 | 6.4 | 0.00 | 0.00 | 0.00 | 64 | 1015.7 |
| 20260504171618 | 17 | 150 | 1.6 | 6.4 | 0.00 | 0.00 | 0.00 | 65 | 1015.6 |
| 20260504170642 | 17 | 152 | 1.6 | 6.4 | 0.00 | 0.00 | 0.00 | 66 | 1015.4 |
| 20260504160354 | 17 | 134 | 0.0 | 6.4 | 0.00 | 0.00 | 0.00 | 70 | 1015.6 |
| 20260504150949 | 15 | 187 | 0.0 | 0.0 | 0.00 | 0.00 | 0.00 | 86 | 1015.5 |
| 20260504140808 | 10 | 160 | 0.0 | 0.0 | 0.00 | 0.00 | 0.00 | 94 | 1015.4 |
| 20260504130651 | 7 | 160 | 0.0 | 0.0 | 0.00 | 0.00 | 0.00 | 94 | 1015.0 |
| 20260504110420 | 7 | 160 | 0.0 | 0.0 | 0.00 | 0.00 | 0.00 | 92 | 1014.8 |